Regional Weather Roundup
Issued by NWS Newport/Morehead, NC

Home | Current Version | Previous Version | Text Only | Print | Product List | Glossary On
Versions: 1 2 3 4 5 6 7 8 9 10 11 12 13 14 15 16 17 18 19 20 21 22 23 24 25 26 27 28 29 30 31 32 33 34 35 36 37 38 39 40 41 42 43 44 45 46 47 48 49 50
000
ASUS42 KMHX 310922
RWRMHX
WEATHER ROUNDUP FOR EASTERN NORTH CAROLINA
NATIONAL WEATHER SERVICE NEWPORT/MOREHEAD CITY NC
400 AM EST SAT JAN 31 2015

NOTE: "FAIR" INDICATES FEW OR NO CLOUDS BELOW 12,000 FEET
WITH NO SIGNIFICANT WEATHER AND/OR OBSTRUCTIONS TO VISIBILITY

NCZ015>017-031-032-045>047-102-103-311000-
NORTH COAST

CITY           SKY/WX    TMP DP  RH WIND       PRES   REMARKS
EDENTON        CLEAR     28  14  56 NW9       30.28R
ELIZABETH CITY FAIR      26  10  50 NW15G23   30.27R WCI  14
KITTY HAWK     SUNNY     28  10  45 NW13G18   30.22S WCI  18
MANTEO         CLEAR     28   9  43 NW22G32   30.24S WCI  15

$$

NCZ045>047-081-094-103-104-311000-
CENTRAL COAST

CITY           SKY/WX    TMP DP  RH WIND       PRES   REMARKS
FRISCO         CLEAR     31  13  47 NW12G23   30.24R
SWANQUARTER    NOT AVBL

$$

NCZ095-097-098-100-101-311000-
SOUTHERN COAST

CITY           SKY/WX    TMP DP  RH WIND       PRES   REMARKS
BEAUFORT       CLEAR     31  16  54 N16       30.29R WCI  20
CEDAR ISLAND   NOT AVBL
JACKSONVILLE   CLEAR     29  12  49 NW12      30.31R WCI  19
PINEY ISLAND     N/A    N/A N/A N/A MISG      30.28R
WILMINGTON     CLEAR     30  11  45 N10       30.31R


$$

NCZ011>013-027>030-043-044-078>080-089-090>093-098-311000-
COASTAL PLAIN

CITY           SKY/WX    TMP DP  RH WIND       PRES   REMARKS
AHOSKIE        CLEAR     26  10  50 NW3       30.30S
CLINTON        CLEAR     30  13  48 N5        30.33S
ELIZABETHTOWN  CLEAR     28  13  53 CALM      30.32S
GOLDSBORO      CLEAR     36  12  38 NW9G18    30.26R
GREENVILLE     CLEAR     28  14  54 CALM      30.31S
HAVELOCK       CLEAR     30  11  45 NW13      30.31R WCI  20
KENANSVILLE    CLEAR     28  11  48 NW7       30.33S
KINSTON        CLEAR     28  13  53 NW5       30.32S
NEW BERN       CLEAR     30  12  47 NW8       30.31R
RICHLANDS      FAIR      28  10  47 NW6       30.32S
ROCKY MOUNT    CLEAR     28  10  46 NW7       30.32R
WASHINGTON     CLEAR     27  13  56 NW3       30.29S
WHITEVILLE     CLEAR     31  11  43 CALM      30.32R

$$

AMZ130-135-150-152-154-156-158-170-250-252-270-ANZ085-086-088-633-658-670-311000-
MARINE OBSERVATIONS

STATION/POSITION TIME  TEMP    WIND        PRES    WAVE   SWELL
                       AIR SEA DIR/SP/G            HT/PER HT/PER
                 (UTC) (F)     (DEG/KT/KT) (MB)    (FT/S) (FT/S)
CHESAPEAKE LIGHT 0900   25     330/ 31/ 36 1023.5
64 E VA BEACH    0900   30 49  320/ 31/ 39 1020.3   11/ 8
DUCK             0900   29 42  330/ 29/ 34 1022.2
2 E DUCK         0900      42                N/A     6/ 7
10 NE DUCK       0900      44                N/A     8/ 7
OREGON INLET     0900   28 40  320/ 16/ 26 1023.5
13E OREGON INLT  0900      45                N/A     9/ 8   2/11
HATTERAS CG      0900   32 41  330/ 26/ 33 1024.1
DIAMOND BUOY     0900   36 64  330/ 27/ 37 1022.2    8/ 9   3/ 9
17 S OCRACOKE    NOT AVBL
CAPE LOOKOUT     0900   32     330/ 21/ 24 1025.0
BEAUFORT LAB     0900   32 46  350/ 12/ 17 1024.5
27 SE WRIGHTSVLE NOT AVBL
5 SE WRIGHTSVLE  0900   36 51  360/ 21/ 25 1025.9
225 S CAPE HAT   0829   55 71  320/ 23/ 31 1020.7   14/10
41 SE CHARLESTON 0900   48 68  360/ 21/ 25 1025.0    7/ 6   2/10

$$



USA.gov is the U.S. government's official web portal to all federal, state and local government web resources and services.